Theta_e
302 302 302 303 303 303 303 303 303 304 304 305 306 307 307 308 308 302 299 297 296 292 293 294 294 291 291 291 286 285 286 286 286 281 283 285 285 286 285 287 286 285 285 288 288 283 285 297 297 290 294 297 298 298
301 301 302 302 302 303 303 303 304 304 305 305 306 307 308 308 309 305 296 297 301 295 293 297 298 298 297 295 291 289 289 291 288 286 288 288 286 288 286 283 291 285 288 288 289 290 298 298 296 298 298 297 298 298
300 301 301 301 302 302 303 303 304 304 305 305 306 307 308 308 309 307 298 299 299 295 291 288 290 296 300 299 300 287 289 293 291 291 292 291 286 289 283 285 287 290 293 290 290 296 296 297 299 299 301 299 300 301
301 301 301 301 301 302 302 303 303 304 305 305 306 307 307 308 308 305 299 298 299 296 287 287 296 294 300 300 298 297 293 292 293 293 292 289 285 292 287 288 288 291 293 289 290 295 296 298 297 298 300 301 301 302
301 301 301 301 301 302 302 303 303 304 305 306 306 306 306 306 307 302 298 298 299 293 284 286 293 296 297 298 297 296 293 290 292 291 287 285 289 291 292 292 289 294 291 288 287 294 294 295 297 299 300 299 301 301
301 301 301 301 301 302 302 303 303 304 305 306 306 307 306 307 306 295 290 297 299 299 292 283 290 294 297 298 299 298 294 294 294 291 290 289 291 291 286 285 293 296 298 297 294 299 298 299 300 301 301 301 303 302
300 301 301 301 302 301 302 303 304 304 305 305 306 307 307 307 296 292 291 296 302 299 289 287 286 294 298 298 297 296 295 291 291 292 288 287 288 290 289 284 292 295 297 297 299 300 296 299 296 300 301 304 305 304
300 300 301 301 301 301 302 302 303 304 304 305 305 307 307 307 304 295 298 302 301 295 292 287 285 290 297 293 292 292 289 288 288 291 288 286 287 287 284 290 292 294 296 298 298 300 299 299 299 301 302 302 303 303
300 300 301 301 301 301 302 302 303 304 304 304 306 307 301 296 293 296 308 303 297 293 284 287 286 284 297 295 294 290 290 286 288 285 288 288 283 281 289 290 291 292 293 295 298 300 298 297 298 299 299 301 302 304
300 300 301 301 301 301 301 302 303 304 304 305 300 296 289 297 308 306 297 293 291 292 293 289 294 286 293 293 291 290 289 287 284 286 290 287 286 292 294 293 293 294 295 296 295 295 297 299 298 297 297 299 302 305
300 300 301 301 301 301 302 302 304 303 301 294 291 291 297 303 297 290 285 285 286 285 293 292 293 290 296 289 288 289 285 286 281 286 286 286 286 290 294 294 296 296 295 295 296 297 298 301 297 298 297 300 302 305
300 300 300 300 301 301 301 302 303 295 293 294 296 300 298 292 288 285 280 285 285 282 290 290 290 290 293 294 287 287 283 284 280 290 285 284 289 294 295 295 297 297 297 296 296 296 297 298 302 301 298 300 302 305
299 300 300 300 300 301 301 303 301 301 300 302 298 294 286 285 279 281 282 283 283 289 290 289 287 289 288 291 288 286 275 281 287 281 284 287 292 294 296 297 297 298 298 299 298 298 298 298 299 301 302 302 301 302
299 299 300 300 300 301 302 300 301 299 297 292 288 279 280 280 280 285 285 285 289 289 290 288 287 284 287 284 287 283 281 282 274 273 281 289 292 294 296 297 298 298 299 299 299 299 298 298 298 300 302 304 301 301
299 299 300 299 301 301 299 300 300 297 295 292 286 279 282 288 288 289 290 289 290 290 288 286 287 287 280 281 286 279 279 272 276 279 286 290 292 293 293 295 298 299 299 299 300 299 299 299 299 299 301 302 303 304
299 298 296 301 300 299 299 298 297 299 295 294 289 286 288 287 288 287 288 288 290 289 289 287 282 282 280 281 275 277 276 269 278 284 289 291 291 292 293 296 297 299 300 300 301 301 301 301 300 299 301 301 303 304
298 292 297 299 299 299 299 295 297 297 295 290 287 291 289 288 287 289 289 289 290 288 283 285 281 280 283 277 273 284 279 282 286 290 291 292 291 292 294 297 298 299 300 300 301 302 302 303 303 300 298 300 302 304
293 293 297 298 298 297 295 297 295 292 289 289 286 289 290 292 290 288 290 290 290 289 288 285 287 280 277 273 273 282 286 288 290 291 291 293 293 297 297 296 298 299 300 301 301 302 301 302 302 301 301 301 302 303
296 296 298 299 297 293 290 294 295 288 290 290 290 291 291 291 292 292 291 291 292 292 291 288 284 280 280 285 284 286 289 289 290 291 293 294 294 298 298 297 298 298 298 300 301 301 301 302 301 303 305 304 303 305
298 298 299 299 298 292 291 291 297 288 285 290 291 290 290 290 292 291 292 292 290 289 287 284 285 287 287 289 290 291 291 292 291 291 292 293 295 294 295 295 295 296 297 299 301 298 302 301 302 303 304 304 306 305
297 296 298 296 295 294 292 291 291 288 289 290 293 291 291 290 289 289 290 293 289 284 282 287 288 290 292 293 294 293 292 293 292 293 292 292 294 293 292 293 294 294 294 296 298 300 300 300 302 304 303 303 303 304
295 298 293 295 291 293 289 291 290 292 288 289 288 289 285 284 285 289 291 290 289 289 289 289 290 292 293 294 295 296 295 295 294 294 294 294 293 292 292 292 292 292 293 294 295 299 301 302 300 303 303 302 302 302
295 294 291 291 290 290 288 294 289 289 286 285 284 284 282 282 289 291 285 290 291 291 292 291 293 293 293 295 295 295 295 295 294 295 295 294 294 294 294 293 293 292 292 294 296 297 300 296 300 300 301 301 302 300
296 290 287 286 287 283 288 285 281 282 281 281 279 282 283 284 287 284 284 287 288 289 292 293 294 293 294 293 292 292 293 294 293 294 294 293 293 293 294 294 293 293 293 294 296 296 298 300 297 300 298 298 296 297
286 283 281 279 284 285 284 284 283 280 284 282 282 282 281 283 280 281 285 287 287 289 291 291 291 291 292 291 292 293 293 294 293 292 292 294 293 293 293 293 293 293 294 295 295 295 295 296 297 297 296 295 294 293
279 278 278 281 280 282 283 282 283 283 282 282 282 283 279 281 281 282 285 287 287 288 291 291 290 289 291 292 292 292 294 293 294 292 291 292 292 292 291 290 290 291 294 295 296 295 294 293 293 293 293 292 289 292
278 278 281 287 281 285 282 284 283 280 282 282 280 280 281 281 281 285 287 289 290 292 293 292 291 291 291 291 291 292 292 294 294 294 294 294 293 293 291 290 290 292 294 295 296 296 293 291 291 291 291 291 291 291
282 281 279 278 282 281 283 280 281 280 284 286 285 283 283 282 283 289 290 292 290 289 289 290 290 290 289 292 292 292 292 295 297 295 293 293 293 292 292 294 292 287 290 290 293 293 292 291 291 290 290 289 288 289
283 281 283 279 281 279 281 282 281 285 290 289 286 283 287 291 292 292 293 293 294 292 288 286 290 293 293 292 291 290 290 291 289 286 286 284 286 288 290 292 294 294 292 289 284 287 289 290 290 290 289 288 288 287
281 284 280 280 280 280 282 286 286 288 289 288 289 290 290 291 294 295 293 290 289 290 291 289 289 291 290 289 287 286 285 286 288 287 285 285 286 288 289 291 293 292 291 291 289 288 284 289 288 288 287 286 284 283
283 283 281 279 281 284 287 289 287 287 286 286 288 287 287 290 293 294 290 290 289 290 292 291 290 292 290 288 286 284 282 283 283 284 284 285 286 286 288 291 292 291 291 289 287 286 285 286 285 284 283 282 282 281
281 281 280 279 279 285 286 284 283 284 285 285 285 287 288 289 288 290 291 291 291 290 286 290 289 287 286 285 283 283 281 282 282 282 284 283 284 286 288 289 289 289 287 286 285 284 282 282 283 283 282 281 281 279
280 283 284 283 279 281 285 283 280 281 280 277 284 286 285 285 283 285 289 290 289 289 290 291 290 289 287 285 284 282 283 282 279 279 280 280 280 282 287 288 288 287 285 284 283 281 282 283 282 282 281 280 279 278
Wind_Speed
22 22 24 25 25 24 23 23 23 23 24 24 22 21 18 16 13 1 3 5 3 4 10 7 5 6 6 4 3 5 4 4 5 6 2 3 1 3 3 3 1 2 6 1 1 3 3 23 9 11 6 8 14 17
22 22 24 25 25 25 24 24 23 23 23 23 21 20 18 15 11 0 2 0 2 4 8 8 16 19 14 17 1 2 2 3 2 3 3 3 3 2 3 3 3 3 4 4 4 4 2 7 3 4 4 6 12 16
23 23 24 25 26 26 25 25 24 24 23 23 21 20 17 14 10 4 2 1 2 3 6 3 6 5 4 11 10 3 3 3 1 3 2 3 3 1 3 3 1 2 3 2 9 2 8 10 5 4 7 8 13 15
22 23 24 25 26 26 26 25 26 25 24 22 21 17 14 13 8 3 2 2 1 3 4 9 3 9 5 6 12 12 4 2 2 1 3 2 2 4 4 4 4 4 3 3 5 12 13 5 11 10 12 12 14 17
21 23 24 25 27 27 27 26 26 26 24 23 20 18 15 11 8 3 3 4 5 2 3 7 11 6 6 5 8 7 5 2 1 2 2 3 2 1 2 3 4 4 3 1 3 12 8 10 10 14 9 12 13 17
21 23 24 25 26 27 27 27 27 26 25 23 23 18 15 10 3 1 4 1 5 3 2 5 5 6 5 3 4 8 5 4 3 3 3 3 3 1 1 2 2 8 7 7 6 11 12 15 13 10 7 11 11 14
21 23 24 25 26 27 28 28 28 27 27 24 21 18 14 9 2 3 5 3 5 2 1 6 5 5 4 2 1 1 2 2 3 3 3 3 3 4 4 4 12 12 5 9 8 12 13 11 7 11 8 11 9 9
21 22 24 25 26 27 27 28 29 29 28 26 24 18 6 5 3 4 4 7 6 1 1 3 6 5 6 3 3 3 3 2 1 2 1 2 4 2 3 11 12 12 14 9 12 14 13 16 13 9 7 8 8 9
21 22 23 25 26 26 27 27 28 30 30 27 18 3 3 2 0 4 1 7 2 4 1 2 4 4 5 3 2 4 2 2 2 0 1 1 2 4 6 11 12 11 9 12 14 15 11 15 12 7 7 9 6 4
20 22 23 23 24 26 26 26 25 28 32 17 4 4 4 3 9 4 4 3 3 1 1 3 0 4 4 2 2 3 2 3 3 2 3 2 2 4 6 11 9 9 9 12 13 12 14 14 13 7 7 7 8 4
19 22 23 24 23 24 24 25 24 24 10 5 5 3 4 12 2 3 2 3 2 3 3 4 6 5 2 2 2 2 3 2 3 2 4 1 2 5 9 11 12 9 6 7 8 11 13 14 14 12 7 7 8 7
19 21 23 24 24 23 23 22 19 5 2 5 5 6 4 4 4 3 2 4 1 4 4 3 3 1 1 1 2 2 2 3 2 5 3 3 4 13 14 16 15 13 10 9 9 12 12 15 15 13 8 7 7 6
20 21 23 26 24 23 22 18 19 16 11 1 2 3 3 2 6 3 2 5 3 3 5 4 4 1 1 2 2 2 6 3 3 3 5 2 8 13 11 10 12 11 12 12 13 11 12 14 14 12 12 9 8 7
19 21 23 27 26 21 17 22 20 12 2 3 2 5 4 3 3 5 5 5 6 5 5 3 1 2 1 4 2 4 3 3 6 6 3 4 11 12 8 9 11 13 13 14 14 13 14 14 15 15 13 10 8 8
18 21 24 27 11 17 23 25 23 3 3 3 3 4 5 5 4 5 5 3 5 4 2 2 2 2 3 4 2 2 6 4 2 4 4 7 11 12 13 11 9 10 11 11 11 12 13 14 14 13 12 10 8 8
17 19 6 9 18 25 26 18 3 3 2 3 4 1 3 1 5 3 3 5 2 2 1 3 2 3 2 3 3 2 1 4 5 4 6 7 12 11 11 12 12 12 12 13 12 11 14 13 13 13 12 11 12 7
12 6 7 15 22 27 23 2 2 5 5 4 4 3 3 2 5 5 4 5 1 2 1 2 3 5 1 3 2 3 5 5 5 7 7 8 8 10 10 10 10 9 9 10 11 13 14 11 9 8 11 12 11 11
6 5 15 20 17 11 3 3 2 3 6 5 2 5 4 4 3 4 5 3 3 3 4 4 4 2 4 4 4 5 5 5 5 6 5 7 7 7 6 8 10 10 11 12 13 15 17 18 12 6 9 11 11 11
9 12 20 23 9 4 4 4 3 4 7 3 4 3 3 4 4 4 3 3 4 3 5 2 2 3 5 5 4 4 4 4 4 3 4 6 6 5 6 7 10 10 12 12 11 11 11 15 13 11 7 8 10 9
17 20 21 20 7 3 4 6 2 3 4 5 2 3 4 4 3 3 3 3 4 4 2 3 6 5 5 5 5 4 4 3 2 3 3 5 3 6 6 6 5 8 7 9 9 8 10 12 13 12 14 6 8 9
6 4 7 0 2 4 4 4 4 5 4 3 3 3 4 1 2 3 3 2 2 4 3 5 5 5 5 3 3 3 4 3 3 4 3 4 4 4 5 5 5 4 4 6 6 9 9 10 11 9 13 9 8 5
3 7 2 3 3 4 5 5 5 4 2 4 2 3 3 2 3 4 3 3 4 5 5 5 4 4 3 4 4 4 4 4 2 3 4 5 3 4 4 4 4 5 5 5 5 6 8 8 10 10 9 12 12 10
5 3 3 3 4 5 8 3 4 4 3 4 3 2 3 2 4 2 2 4 4 4 4 4 4 4 5 3 2 3 5 3 1 2 4 4 2 2 3 4 4 4 5 5 4 4 5 8 9 10 11 10 12 16
3 3 4 5 7 6 3 4 2 2 2 1 2 4 4 4 0 1 4 4 4 2 3 6 4 4 2 2 2 3 3 2 1 3 1 1 3 2 2 4 4 4 3 4 4 4 6 7 9 7 9 10 10 9
5 7 4 8 4 4 5 3 4 1 5 4 3 5 5 2 2 3 4 4 3 4 4 4 3 4 4 3 2 2 2 3 2 2 4 2 2 2 2 2 3 4 5 5 5 5 6 7 8 8 10 11 11 12
7 7 10 7 4 5 5 4 5 6 3 3 5 4 2 2 3 6 4 3 4 4 4 6 6 4 3 3 4 3 2 1 4 4 2 3 2 1 3 3 3 5 5 4 4 5 6 6 8 11 10 12 11 10
8 8 4 4 3 2 3 1 2 1 3 5 4 2 3 5 6 5 3 2 4 4 4 5 5 5 5 4 2 3 2 3 4 4 4 1 2 2 2 1 3 3 4 5 5 5 5 6 8 8 8 8 10 10
8 3 6 4 4 3 3 2 4 5 5 4 1 4 4 4 5 3 4 3 3 4 5 4 3 4 4 6 5 5 3 4 5 4 3 2 1 2 5 5 4 7 5 5 4 5 5 6 7 8 8 8 9 9
4 3 4 4 4 4 6 7 6 5 4 4 5 3 3 3 3 5 6 3 4 3 3 3 2 4 5 4 4 2 2 4 5 6 5 1 2 4 4 4 4 4 5 7 8 7 7 6 7 8 9 8 7 7
7 6 5 6 6 8 7 8 5 4 3 4 3 2 3 4 4 2 6 3 2 4 4 5 4 2 7 7 5 4 5 4 3 4 5 4 3 2 4 2 4 5 4 3 4 4 4 5 6 6 7 6 6 6
4 6 4 5 5 5 8 5 3 2 2 4 4 4 4 2 2 1 2 4 2 2 4 5 4 3 4 4 4 5 3 4 5 6 4 3 3 3 3 1 3 3 5 5 3 4 5 7 6 7 7 7 8 7
5 8 6 5 5 5 4 5 5 5 4 4 4 4 3 3 4 2 4 3 3 6 5 7 7 5 5 4 4 5 7 4 3 4 5 3 3 3 3 4 4 4 5 5 4 5 6 6 7 7 7 8 8 7
4 4 4 3 3 4 4 3 2 2 0 2 5 5 5 6 5 2 3 5 3 1 5 6 6 6 6 5 5 5 7 6 7 7 6 7 7 7 5 4 4 4 5 5 5 5 7 9 7 8 9 9 8 7
Wind_Direction
329 330 328 327 327 328 328 328 329 327 323 324 323 319 317 315 317 350 252 196 211 250 279 249 203 218 275 244 269 288 332 358 337 22 341 15 183 130 141 161 103 312 313 1 218 283 289 343 10 53 289 308 320 324
326 328 328 327 326 325 327 327 327 324 323 323 321 319 319 313 301 295 255 240 192 252 263 263 258 257 238 236 222 259 236 299 252 336 349 304 345 152 138 142 141 223 318 325 320 350 300 3 107 257 261 307 329 318
324 324 325 325 325 324 326 326 324 322 323 322 318 318 319 316 300 205 228 268 256 263 292 351 262 272 188 211 199 181 270 219 173 190 252 300 17 232 25 44 342 232 305 279 325 104 292 292 260 329 1 322 324 324
319 319 322 323 323 324 325 325 322 320 322 323 318 318 321 320 323 250 212 182 229 264 289 281 312 293 262 179 194 211 188 75 108 98 247 270 220 169 183 175 219 217 229 346 307 291 324 182 347 343 332 330 328 337
316 316 320 322 322 324 325 324 321 319 324 325 325 322 317 314 309 275 214 215 215 156 257 284 311 264 288 180 213 210 207 194 90 302 274 252 298 7 167 174 204 191 175 159 236 287 291 276 291 309 309 318 326 343
313 314 316 320 321 323 325 323 321 321 325 327 328 320 304 295 335 45 346 272 184 189 277 306 282 304 314 285 233 249 213 184 191 194 233 273 286 47 65 292 238 180 155 226 245 266 293 287 284 299 295 303 327 335
311 313 314 318 320 321 324 324 320 321 324 326 322 309 283 261 121 171 198 201 145 145 18 295 295 275 327 9 65 318 10 184 166 206 237 215 229 156 196 198 6 3 248 233 238 264 288 290 277 297 290 280 297 315
309 312 313 316 318 320 322 324 320 320 323 325 323 313 254 203 249 308 271 251 165 166 105 282 280 356 359 318 325 345 338 16 309 261 338 274 332 356 25 6 341 346 336 351 345 291 258 278 286 271 266 280 308 343
307 310 312 314 317 319 322 323 321 319 320 323 322 116 98 75 182 251 101 110 72 126 220 292 281 305 335 271 15 347 1 327 272 85 325 37 342 52 326 328 328 332 330 317 315 320 306 296 283 284 274 289 291 326
304 308 310 312 315 318 322 320 322 321 318 324 26 38 328 237 321 76 13 7 21 313 131 256 276 269 288 306 20 354 2 359 327 272 287 182 144 350 336 334 318 308 307 343 340 333 307 312 306 280 265 274 277 256
303 305 308 311 314 316 320 319 322 329 337 15 10 310 287 308 50 34 320 55 324 340 228 238 220 272 22 356 348 33 336 318 324 343 318 304 143 328 329 319 317 311 280 287 282 300 317 304 279 300 299 272 288 282
300 303 305 307 310 313 317 316 321 353 278 276 293 287 298 4 23 49 301 324 27 252 278 247 313 153 50 66 60 356 338 334 294 333 312 331 325 333 332 322 323 310 310 292 277 287 303 318 324 307 290 286 290 278
301 302 303 303 307 310 311 306 322 312 310 233 197 260 50 310 31 68 345 297 296 263 257 320 321 338 330 62 84 331 35 327 308 6 346 281 323 318 323 309 302 299 289 291 292 311 317 307 304 304 310 300 276 270
300 301 301 300 307 302 302 320 326 325 287 221 161 315 144 286 233 192 204 223 248 241 287 296 292 78 358 39 10 351 278 17 16 10 306 281 295 288 304 300 298 299 293 286 291 309 318 295 295 293 290 287 287 261
302 303 300 298 285 323 324 323 322 234 176 229 117 230 220 233 250 229 225 273 248 249 305 8 47 101 11 76 29 3 4 348 186 251 255 272 292 308 305 301 299 298 299 310 312 298 283 275 274 281 286 294 283 285
308 311 253 239 316 322 320 323 315 192 231 210 226 215 219 67 281 289 239 255 238 277 104 52 55 42 8 118 62 203 108 236 261 241 267 305 304 305 305 309 308 320 324 322 313 302 288 269 258 256 265 271 271 258
303 234 288 326 323 315 312 239 265 231 222 217 251 210 182 205 217 245 205 249 175 67 257 85 38 212 84 49 313 197 206 224 240 287 286 296 278 292 298 304 308 311 314 308 314 318 326 313 277 252 254 258 256 252
245 272 305 315 326 312 289 235 250 245 248 236 180 223 195 212 204 250 242 221 162 174 124 214 135 104 187 179 263 239 234 250 240 250 265 286 288 286 295 304 315 325 323 330 339 339 342 343 334 278 262 255 261 259
267 286 296 299 302 297 310 283 154 253 239 233 244 232 203 231 221 229 229 217 200 177 124 122 141 205 234 213 221 238 235 227 248 273 274 288 298 298 306 308 306 311 323 326 340 343 341 343 340 335 306 269 256 245
280 280 280 284 253 219 272 267 217 250 261 239 244 228 201 212 222 212 235 215 168 143 143 181 210 211 198 225 200 217 225 244 263 294 311 326 326 1 319 299 295 307 313 322 335 330 347 340 355 343 331 272 252 246
283 262 303 341 196 231 262 268 265 222 252 230 249 181 245 208 230 216 245 159 118 192 221 213 223 234 210 226 223 193 233 214 224 229 242 286 320 334 304 312 330 324 340 332 336 339 360 354 332 341 340 347 342 311
254 318 304 251 241 225 243 230 223 275 274 250 307 205 255 255 241 229 175 176 213 221 199 194 209 183 194 221 220 208 230 265 309 280 298 284 288 340 340 316 331 328 328 319 334 344 352 356 359 350 2 359 359 30
310 197 213 252 253 238 254 143 212 218 225 264 354 237 274 249 227 100 214 215 234 224 211 209 209 179 171 193 173 236 249 235 312 287 271 272 251 292 319 346 342 338 340 328 335 337 357 333 22 14 4 4 4 25
274 235 234 226 201 255 285 257 251 249 276 314 238 247 256 228 179 178 237 224 241 257 197 197 155 124 99 157 201 226 248 213 150 297 352 298 306 319 323 317 324 329 324 298 338 354 360 357 345 35 27 18 17 30
213 232 190 240 232 238 230 248 234 106 243 224 233 260 266 98 154 242 231 243 222 234 208 169 173 188 162 181 182 241 280 172 155 89 346 260 284 348 337 317 331 336 333 355 2 9 11 6 9 22 31 26 23 27
218 231 188 203 231 187 217 238 215 217 205 227 239 254 9 126 190 251 229 231 217 216 191 179 167 155 189 179 155 179 212 154 111 102 346 14 36 67 329 354 350 326 347 327 355 20 33 31 28 25 22 29 29 30
234 246 230 233 195 234 272 291 314 95 240 230 243 275 196 229 237 252 274 227 206 226 191 159 159 159 173 156 153 170 200 193 145 147 148 137 103 117 139 251 316 290 342 14 26 37 40 39 45 39 36 29 30 38
230 230 206 220 210 200 224 215 208 216 222 238 147 199 247 228 235 240 211 244 188 155 144 162 156 157 144 162 148 141 133 118 109 104 75 23 9 40 33 72 65 55 57 33 39 58 62 62 57 58 53 47 40 34
223 209 180 235 216 227 217 205 213 216 203 187 182 228 262 301 13 11 323 236 126 68 16 39 29 95 81 73 67 29 122 151 121 118 113 155 348 335 337 89 101 76 74 72 44 45 60 66 66 62 62 59 50 44
221 176 193 202 198 217 226 191 218 220 195 196 197 196 243 253 265 56 310 310 271 141 132 133 157 198 156 148 136 72 24 22 36 128 157 180 208 313 333 21 116 112 94 79 91 83 57 81 72 63 61 52 45 42
185 174 202 206 235 229 217 211 250 246 218 218 213 213 225 274 300 69 312 302 292 93 94 97 100 134 128 136 138 127 99 5 34 50 48 26 24 20 333 272 123 99 105 114 122 106 100 89 86 82 76 69 63 61
184 195 189 210 248 246 189 194 201 201 215 199 226 203 184 157 226 304 341 338 103 92 88 100 89 57 52 60 56 58 80 92 59 37 22 22 34 11 19 66 76 85 89 95 92 89 89 92 101 103 95 89 83 70
200 194 200 262 276 238 221 164 208 248 289 208 228 196 185 163 178 245 346 18 353 108 143 127 120 117 111 104 107 100 99 100 86 60 49 40 32 30 47 54 63 80 89 86 80 81 88 89 87 93 96 95 91 84